GW7331 Weather Reports


time (UTC)temp
C
wind
direction
speed
KPH
gust
KPH
rain 1hr
cm
rain 24hr
cm
rain mn
cm
humidity
%
barometer
mb
20260506163039 25 199 0.0 8.0 0.00 0.00 0.00 87 1016.0
20260506161543 25 0 0.0 3.2 0.00 0.00 0.00 88 1015.9
20260506160040 25 0 0.0 3.2 0.00 0.00 0.00 87 1015.9
20260506154541 25 0 0.0 1.6 0.00 0.00 0.00 89 1015.8
20260506153037 24 183 0.0 3.2 0.00 0.00 0.00 89 1015.8
20260506151541 24 0 0.0 3.2 0.00 0.00 0.00 91 1015.6
20260506150035 23 201 0.0 4.8 0.00 0.00 0.00 90 1015.6
20260506144552 23 231 1.6 6.4 0.00 0.00 0.00 90 1015.5
20260506143038 23 212 0.0 8.0 0.00 0.00 0.00 91 1015.4
20260506141537 23 0 0.0 4.8 0.00 0.00 0.00 93 1015.3
20260506140037 22 224 1.6 6.4 0.00 0.00 0.00 96 1015.2
20260506134535 22 0 1.6 9.7 0.00 0.00 0.00 97 1015.0
20260506133040 22 0 0.0 1.6 0.00 0.00 0.00 97 1015.0
20260506131546 22 0 0.0 0.0 0.00 0.00 0.00 97 1014.9
20260506130037 21 0 0.0 4.8 0.00 0.00 0.00 97 1014.7
20260506124537 21 0 0.0 3.2 0.00 0.00 0.00 97 1014.5
20260506123037 21 0 0.0 0.0 0.00 0.00 0.00 97 1014.2
20260506121537 20 0 0.0 1.6 0.00 0.00 0.00 97 1014.1
20260506120040 20 0 0.0 0.0 0.00 0.00 0.00 97 1014.0
20260506114542 19 0 0.0 0.0 0.00 0.00 0.00 97 1013.7
20260506113037 19 0 0.0 0.0 0.00 0.00 0.00 97 1013.6
20260506111536 18 0 0.0 0.0 0.00 0.00 0.00 96 1013.1
20260506110036 18 0 0.0 0.0 0.00 0.00 0.00 96 1012.9
20260506104537 18 0 0.0 0.0 0.00 0.00 0.00 96 1012.8
20260506103038 18 0 0.0 0.0 0.00 0.00 0.00 96 1012.5
20260506101538 18 0 0.0 0.0 0.00 0.00 0.00 96 1012.1
20260506100039 18 0 0.0 0.0 0.00 0.00 0.00 96 1012.1
20260506094536 18 0 0.0 0.0 0.00 0.00 0.00 96 1012.1
20260506093035 18 0 0.0 0.0 0.00 0.00 0.00 96 1012.1
20260506091538 18 0 0.0 0.0 0.00 0.00 0.00 96 1012.2
20260506090037 18 0 0.0 0.0 0.00 0.00 0.00 96 1012.1
20260506084541 18 0 0.0 0.0 0.00 0.00 0.00 95 1012.3
20260506083037 18 0 0.0 0.0 0.00 0.00 0.00 96 1012.5
20260506081539 18 0 0.0 0.0 0.00 0.00 0.00 96 1012.4
20260506073038 18 0 0.0 1.6 0.00 0.00 0.00 96 1013.0
20260506071537 18 0 0.0 0.0 0.00 0.00 0.00 95 1012.8
20260506061537 17 0 0.0 0.0 0.00 0.00 0.00 95 1013.2
20260506044544 17 0 0.0 0.0 0.00 0.00 0.00 93 1014.0
20260506043035 17 0 0.0 0.0 0.00 0.00 0.00 93 1014.0
20260506041539 17 0 0.0 0.0 0.00 0.00 0.00 93 1014.2
20260506040039 17 0 0.0 0.0 0.00 0.00 0.00 93 1014.3
20260506034539 18 0 0.0 0.0 0.00 0.00 0.00 92 1014.4
20260506033038 18 0 0.0 0.0 0.00 0.00 0.00 92 1014.4
20260506031537 18 0 0.0 0.0 0.00 0.00 0.00 91 1014.4
20260506030056 18 0 0.0 0.0 0.00 0.00 0.00 91 1014.5
20260506024550 18 0 0.0 0.0 0.00 0.00 0.00 91 1014.4
20260506023037 18 0 0.0 0.0 0.00 0.00 0.00 90 1014.3
20260506021536 18 0 0.0 0.0 0.00 0.00 0.00 89 1014.2
20260506020039 19 0 0.0 0.0 0.00 0.00 0.00 88 1014.2
20260506014552 19 0 0.0 0.0 0.00 0.00 0.00 88 1014.2
20260506013037 20 0 0.0 0.0 0.00 0.00 0.00 87 1014.1
20260506011541 20 0 0.0 0.0 0.00 0.00 0.00 85 1014.0
20260506010049 20 0 0.0 0.0 0.00 0.00 0.00 84 1013.9
20260506004548 21 0 0.0 0.0 0.00 0.00 0.00 83 1013.9
20260506003041 21 0 0.0 0.0 0.00 0.00 0.00 81 1013.6
20260506001536 22 0 0.0 1.6 0.00 0.00 0.00 79 1013.6
20260506000035 22 200 0.0 4.8 0.00 0.00 0.00 78 1013.7
20260505234539 23 191 0.0 1.6 0.00 0.00 0.00 76 1013.7
20260505233037 23 238 1.6 8.0 0.00 0.00 0.00 73 1014.0
20260505231536 24 212 0.0 6.4 0.00 0.00 0.00 71 1013.9
20260505230045 25 0 1.6 8.0 0.00 0.00 0.00 70 1013.8
20260505224544 25 218 3.2 8.0 0.00 0.00 0.00 70 1013.9
20260505223037 24 241 4.8 12.9 0.00 0.00 0.00 69 1013.7
20260505221538 25 236 4.8 11.3 0.00 0.00 0.00 68 1013.7
20260505220042 26 200 1.6 9.7 0.00 0.00 0.00 66 1013.5
20260505214540 26 210 1.6 11.3 0.00 0.00 0.00 67 1013.4
20260505213045 26 147 4.8 16.1 0.00 0.00 0.00 62 1013.8
20260505211542 26 167 3.2 9.7 0.00 0.00 0.00 63 1013.7
20260505210037 26 228 4.8 16.1 0.00 0.00 0.00 63 1013.8
20260505204538 26 210 1.6 12.9 0.00 0.00 0.00 64 1013.8
20260505203044 26 226 8.0 19.3 0.00 0.00 0.00 61 1014.0
20260505201536 26 155 3.2 16.1 0.00 0.00 0.00 61 1014.1
20260505200039 26 181 6.4 14.5 0.00 0.00 0.00 59 1014.3
20260505194547 26 174 3.2 16.1 0.00 0.00 0.00 57 1014.5
20260505193055 27 214 3.2 14.5 0.00 0.00 0.00 56 1014.6
20260505191540 27 237 4.8 12.9 0.00 0.00 0.00 59 1014.6
20260505190041 26 226 4.8 20.9 0.00 0.00 0.00 55 1014.7
20260505184540 26 219 8.0 14.5 0.00 0.00 0.00 57 1014.9
20260505183040 26 175 1.6 20.9 0.00 0.00 0.00 59 1015.0
20260505181537 26 193 4.8 19.3 0.00 0.00 0.00 61 1015.0
20260505180040 26 253 3.2 11.3 0.00 0.00 0.00 61 1015.2
20260505174539 26 204 6.4 12.9 0.00 0.00 0.00 61 1015.2
20260505173039 25 141 6.4 17.7 0.00 0.00 0.00 63 1015.4
20260505171545 25 226 3.2 14.5 0.00 0.00 0.00 63 1015.3
20260505170039 25 136 3.2 11.3 0.00 0.00 0.00 66 1015.2
20260505164540 25 244 1.6 11.3 0.00 0.00 0.00 66 1015.3